NOAA 16 DEB, 41249

Orbit data source: Space-Track

NOAA 16 DEB, 41249 is space debris in SSO originally from a launch on Thu, 21 Sep 2000 UTC launched from the Air Force Western Test Range (AFWTR). Debris objects in space refer to the collection of defunct objects orbiting the Earth. Examples of debris include non-operational satellites, rocket bodies, and fragments generated from explosions, collisions, or faulty payload assembly.

Loading next visibility...
Identifier
41249, 2000-055EZ
Orbit
SSO
Country
Flag of USUS
Related business
Manufacturer
Unknown
Mission
Spacecraft
Bus & Motor
Unknown
Mass
Unknown
Launch date (UTC)
2000-09-21 (25 years ago)
Launch vehicle
Unknown
Launch site
Air Force Western Test Range (AFWTR)
Object type
Payload
Rocket body
Debris
Shape & HBR
Unknown shape, 0.1 m
Radar Cross Section
Small (<0.1 m²)

Expand to show TLE details & history
Last TLE update: 2 days ago

TLE from 2 days ago
0 NOAA 16 DEB
1 41249U 00055EZ  25296.80279708  .00011486  00000-0  26491-2 0  9999
2 41249  98.9641 145.9947 0034536  27.2640 333.0359 14.55087386511369
Epoch: 2025-10-23T19:16Z
TLE epoch observation values (Epoch: 2025-10-23T19:16:01.667Z)
Latitude
0.00001°
Longitude
-175.46906°
Altitude
690.232 km
Speed
7.523 km/s
True Right ascension
09h 43m 58s
True Declination
0° 00' 00"
Sunlit
Object was in daylight at epoch
Visualization orbit readout
Latitude
Unknown
Longitude
Unknown
Altitude
Unknown
Speed
Unknown
Apparent Right ascension
Unknown
Apparent Declination
Unknown
Sunlit
N/A
Visualization observer readout
Local Sidereal Time
03:35:56
Azimuth
Unknown
Elevation
Unknown
Doppler factor
Unknown
Orbital elements
Apogee altitude
730.672 km
Perigee altitude
681.739 km
Semi-major axis
7,084.342 km
Eccentricity
0.00345
Inclination
98.9641°
RAAN
145.9947°
Arg. of periapsis
27.264°
True anomaly
332.85576°
Mean anomaly
333.0359°
Eccentric anomaly
332.9459°
Mean motion
3.63994 °/min
Orbital period
98.9 mins
BSTAR
0.0026491
Loading maneuver chart data...
Computing Atmospheric mass density...

Documentation

Showing up to 5 results
|